{"data":{"norad_id":56032,"intl_designator":"2023-042AY","name":"STARLINK-5786","alt_names":[],"object_type":"PAYLOAD","status":"ACTIVE","operator":null,"country":"US","launch_date":"2023-03-24","launch_site_code":"AFETR","launch_vehicle":null,"mission":null,"orbit_class":"UNKNOWN","rcs_meters":null,"size_class":null,"mass_kg":null,"dimensions":null,"purposes":["comms"],"wikipedia_slug":null,"has_3d_model":false,"image_url":null,"decayed_at":null,"tle_current":{"epoch":"2026-05-24T22:18:00.881568Z","epoch_age_seconds":80632,"freshness":"FRESH","line1":"1 56032U 23042AY  26144.92917687  .00000228  00000+0  17819-4 0  9994","line2":"2 56032  43.0044 334.8055 0001597 268.0510  92.0159 15.27576022174695","mean_motion":15.27576022,"eccentricity":0.0001597,"inclination_deg":43.0044,"raan_deg":334.8055,"arg_perigee_deg":268.051,"mean_anomaly_deg":92.0159,"bstar":1.7819e-5,"rev_number":17469,"period_min":94.266994196116,"perigee_km":481.96527430676,"apogee_km":484.1567409504,"semimajor_km":6861.1980076286,"source":"CELESTRAK","updated_at":"2026-05-25T13:38:17.950957Z"}}}